Pine River, MN

2:45 AM CST on December 14, 2017 (GMT -0600)
Pine River Regional

Weather History for KPWC - February, 2014

Change the Weather History Date:

Sunday, February 16, 2014

  Actual Average Record
Temperature  
Mean Temperature 3 °F -  
Max Temperature 17 °F 26 °F 51 °F (2011)
Min Temperature -11 °F 6 °F -25 °F (1997)
Degree Days  
Heating Degree Days 62    
Moisture  
Dew Point 2 °F    
Average Humidity 76    
Maximum Humidity 92    
Minimum Humidity 62    
Precipitation  
Precipitation 0.00 in - - ()
Sea Level Pressure  
Sea Level Pressure 30.09 in    
Wind  
Wind Speed 7 mph (ESE)    
Max Wind Speed 16 mph    
Max Gust Speed 23 mph    
Visibility 9 miles    
Events Snow    
Averages and records for this station are not official NWS values.
T = Trace of Precipitation, MM = Missing Value Source: NWS Daily Summary

Daily Weather History Graph

Daily Weather History Graph

Search for Another Location

Airport or City:

Trip Planner

Search our weather history database for the weather conditions in past years. The results will help you decide how hot, cold, wet, or windy it might be!

Date:

Astronomy

Feb. 16, 2014 Rise Set
Actual Time 7:19 AM CST 5:44 PM CST
Civil Twilight 6:48 AM CST 6:15 PM CST
Nautical Twilight 6:13 AM CST 6:50 PM CST
Astronomical Twilight 5:38 AM CST 7:25 PM CST
Moon 7:51 PM CST (2/16) 7:41 AM CST (2/16)
Length of Visible Light 11h 26m
Length of Day
10h 24m
Full, 97% of the Moon is Illuminated
Feb 16
Full
Feb 22
Last Quarter
Mar 1
New
Mar 8
First Quarter
Mar 16
Full

Hourly Weather History & Observations

Time (CST) Temp. Windchill Dew Point Humidity Pressure Visibility Wind Dir Wind Speed Gust Speed Precip Events Conditions
12:13 AM 10.4 °F -0.4 °F 6.8 °F 85% 30.10 in 7.0 mi North 6.9 mph - N/A Snow Light Snow
12:32 AM 10.4 °F -0.4 °F 6.8 °F 85% 30.09 in 5.0 mi North 6.9 mph - N/A Snow Light Snow
12:53 AM 8.6 °F -2.6 °F 5.0 °F 85% 30.09 in 4.0 mi North 6.9 mph - N/A Snow Light Snow
1:13 AM 6.8 °F -3.5 °F 3.2 °F 85% 30.09 in 10.0 mi North 5.8 mph - N/A Snow Light Snow
1:33 AM 6.8 °F -2.0 °F 3.2 °F 85% 30.08 in 10.0 mi North 4.6 mph - N/A   Clear
1:53 AM 6.8 °F -2.0 °F 3.2 °F 85% 30.09 in 10.0 mi North 4.6 mph - N/A Snow Light Snow
2:12 AM 5.0 °F -5.6 °F 3.2 °F 92% 30.09 in 10.0 mi North 5.8 mph - N/A   Clear
2:32 AM 5.0 °F -4.1 °F 1.4 °F 85% 30.10 in 10.0 mi North 4.6 mph - N/A Snow Light Snow
2:53 AM 3.2 °F -4.2 °F 1.4 °F 92% 30.11 in 7.0 mi North 3.5 mph - N/A Snow Light Snow
3:13 AM 3.2 °F - 1.4 °F 92% 30.12 in 1.5 mi Calm Calm - N/A Snow Light Snow
3:33 AM 3.2 °F -4.2 °F -0.4 °F 85% 30.13 in 1.8 mi North 3.5 mph - N/A Snow Light Snow
3:52 AM 1.4 °F -8.3 °F -0.4 °F 92% 30.14 in 7.0 mi North 4.6 mph - N/A Snow Light Snow
4:13 AM -0.4 °F -10.4 °F -2.2 °F 92% 30.15 in 10.0 mi North 4.6 mph - N/A Snow Light Snow
4:31 AM 1.4 °F - -2.2 °F 85% 30.16 in 10.0 mi Calm Calm - N/A   Clear
4:51 AM -2.2 °F - -5.8 °F 85% 30.16 in 10.0 mi Calm Calm - N/A   Clear
5:13 AM -5.8 °F - -9.4 °F 84% 30.17 in 10.0 mi Calm Calm - N/A   Clear
5:32 AM -5.8 °F - -9.4 °F 84% 30.16 in 10.0 mi Calm Calm - N/A   Clear
5:53 AM -7.6 °F - -11.2 °F 84% 30.16 in 10.0 mi Calm Calm - N/A   Clear
6:13 AM -9.4 °F -18.6 °F -11.2 °F 92% 30.16 in 10.0 mi NNE 3.5 mph - N/A   Clear
6:33 AM -9.4 °F - -11.2 °F 92% 30.16 in 10.0 mi Calm Calm - N/A   Clear
6:53 AM -9.4 °F - -13.0 °F 84% 30.16 in 10.0 mi Calm Calm - N/A   Clear
7:13 AM -9.4 °F - -14.8 °F 77% 30.17 in 10.0 mi Calm Calm - N/A   Clear
7:32 AM -9.4 °F - -14.8 °F 77% 30.18 in 7.0 mi Calm Calm - N/A   Clear
7:53 AM -11.2 °F - -14.8 °F 84% 30.18 in 10.0 mi Calm Calm - N/A   Clear
8:13 AM -9.4 °F - -13.0 °F 84% 30.18 in 10.0 mi Calm Calm - N/A   Clear
8:32 AM -4.0 °F - -7.6 °F 85% 30.19 in 10.0 mi Calm Calm - N/A   Clear
8:53 AM 1.4 °F -9.9 °F -2.2 °F 85% 30.19 in 10.0 mi SE 5.8 mph - N/A   Clear
9:12 AM 1.4 °F -11.3 °F -2.2 °F 85% 30.19 in 10.0 mi ESE 6.9 mph - N/A   Clear
9:32 AM 1.4 °F -11.3 °F -0.4 °F 92% 30.19 in 10.0 mi SSE 6.9 mph - N/A   Clear
9:53 AM 3.2 °F -6.2 °F -0.4 °F 85% 30.18 in 10.0 mi SE 4.6 mph - N/A   Clear
10:13 AM 5.0 °F -4.1 °F 1.4 °F 85% 30.18 in 10.0 mi SE 4.6 mph - N/A   Clear
10:33 AM 6.8 °F -6.9 °F 3.2 °F 85% 30.18 in 10.0 mi SSE 9.2 mph - N/A   Clear
10:53 AM 8.6 °F -5.5 °F 3.2 °F 79% 30.18 in 10.0 mi SSE 10.4 mph - N/A   Clear
11:12 AM 8.6 °F -5.5 °F 3.2 °F 79% 30.17 in 10.0 mi SE 10.4 mph - N/A   Clear
11:33 AM 10.4 °F -1.5 °F 3.2 °F 73% 30.18 in 10.0 mi SE 8.1 mph - N/A   Clear
11:53 AM 10.4 °F -2.4 °F 5.0 °F 79% 30.17 in 10.0 mi SSE 9.2 mph - N/A   Clear
12:13 PM 12.2 °F -1.8 °F 5.0 °F 73% 30.15 in 10.0 mi SSE 11.5 mph - N/A   Clear
12:33 PM 12.2 °F -1.0 °F 6.8 °F 79% 30.13 in 10.0 mi SSE 10.4 mph - N/A   Clear
12:52 PM 14.0 °F 2.0 °F 6.8 °F 73% 30.12 in 10.0 mi SSE 9.2 mph - N/A   Clear
1:13 PM 15.8 °F 3.4 °F 6.8 °F 68% 30.11 in 10.0 mi ESE 10.4 mph - N/A   Clear
1:33 PM 15.8 °F 3.4 °F 5.0 °F 62% 30.10 in 10.0 mi ESE 10.4 mph - N/A   Clear
1:52 PM 15.8 °F 3.4 °F 6.8 °F 68% 30.09 in 7.0 mi SE 10.4 mph - N/A   Clear
2:13 PM 15.8 °F 3.4 °F 6.8 °F 68% 30.07 in 7.0 mi SE 10.4 mph - N/A Snow Light Snow
2:32 PM 15.8 °F 1.4 °F 5.0 °F 62% 30.06 in 10.0 mi SE 13.8 mph 18.4 mph N/A   Clear
2:52 PM 15.8 °F 0.3 °F 5.0 °F 62% 30.05 in 10.0 mi SE 16.1 mph - N/A   Clear
3:13 PM 15.8 °F 2.7 °F 5.0 °F 62% 30.04 in 10.0 mi ESE 11.5 mph 21.9 mph N/A   Clear
3:31 PM 15.8 °F 0.3 °F 5.0 °F 62% 30.04 in 10.0 mi SE 16.1 mph 23.0 mph N/A   Clear
3:53 PM 15.8 °F 0.3 °F 5.0 °F 62% 30.05 in 10.0 mi SE 16.1 mph 21.9 mph N/A   Clear
4:13 PM 15.8 °F 0.9 °F 5.0 °F 62% 30.05 in 10.0 mi SE 15.0 mph - N/A   Clear
4:32 PM 15.8 °F 3.4 °F 5.0 °F 62% 30.06 in 10.0 mi SE 10.4 mph - N/A   Clear
4:52 PM 15.8 °F 1.4 °F 5.0 °F 62% 30.04 in 10.0 mi SE 13.8 mph 19.6 mph N/A   Clear
5:13 PM 15.8 °F 1.4 °F 5.0 °F 62% 30.04 in 10.0 mi SE 13.8 mph - N/A   Scattered Clouds
5:33 PM 15.8 °F 2.1 °F 5.0 °F 62% 30.04 in 10.0 mi SE 12.7 mph 18.4 mph N/A   Scattered Clouds
5:53 PM 15.8 °F 2.7 °F 6.8 °F 68% 30.05 in 10.0 mi SE 11.5 mph 17.3 mph N/A   Mostly Cloudy
6:13 PM 15.8 °F 0.9 °F 6.8 °F 68% 30.04 in 10.0 mi SE 15.0 mph 19.6 mph N/A   Mostly Cloudy
6:32 PM 15.8 °F 0.3 °F 6.8 °F 68% 30.03 in 10.0 mi SE 16.1 mph 19.6 mph N/A   Overcast
6:53 PM 15.8 °F 0.3 °F 6.8 °F 68% 30.02 in 10.0 mi SE 16.1 mph 21.9 mph N/A   Mostly Cloudy
7:12 PM 15.8 °F 3.4 °F 6.8 °F 68% 30.02 in 10.0 mi SE 10.4 mph - N/A   Mostly Cloudy
7:33 PM 15.8 °F 1.4 °F 6.8 °F 68% 30.01 in 10.0 mi SE 13.8 mph - N/A   Overcast
7:53 PM 15.8 °F 1.4 °F 6.8 °F 68% 30.00 in 10.0 mi SE 13.8 mph 19.6 mph N/A   Overcast
8:13 PM 15.8 °F 0.9 °F 6.8 °F 68% 29.99 in 10.0 mi SE 15.0 mph 20.7 mph N/A   Mostly Cloudy
8:33 PM 15.8 °F 0.9 °F 6.8 °F 68% 29.99 in 10.0 mi SE 15.0 mph 19.6 mph N/A   Mostly Cloudy
8:53 PM 15.8 °F 0.3 °F 6.8 °F 68% 29.97 in 10.0 mi SE 16.1 mph 19.6 mph N/A   Mostly Cloudy
9:13 PM 15.8 °F 1.4 °F 6.8 °F 68% 29.96 in 10.0 mi SE 13.8 mph 20.7 mph N/A   Overcast
9:33 PM 15.8 °F 0.9 °F 8.6 °F 73% 29.96 in 10.0 mi SE 15.0 mph 20.7 mph N/A   Overcast
9:52 PM 15.8 °F 0.9 °F 8.6 °F 73% 29.96 in 10.0 mi SE 15.0 mph 19.6 mph N/A   Overcast
10:12 PM 15.8 °F 1.4 °F 8.6 °F 73% 29.95 in 10.0 mi SE 13.8 mph 19.6 mph N/A   Overcast
10:32 PM 15.8 °F 0.9 °F 8.6 °F 73% 29.94 in 10.0 mi SE 15.0 mph 18.4 mph N/A   Overcast
10:53 PM 17.6 °F 3.2 °F 8.6 °F 68% 29.92 in 10.0 mi SE 15.0 mph 20.7 mph N/A   Overcast
11:12 PM 17.6 °F 3.2 °F 8.6 °F 68% 29.91 in 10.0 mi SE 15.0 mph - N/A   Overcast
11:32 PM 17.6 °F 3.7 °F 8.6 °F 68% 29.90 in 10.0 mi SE 13.8 mph - N/A   Overcast
11:52 PM 17.6 °F 3.2 °F 10.4 °F 73% 29.90 in 10.0 mi SE 15.0 mph 21.9 mph N/A   Overcast